Location: Table Rock
(44.3339°N, 118.3154°W)
Time: 05:47:50
(UTC-07:00)

Daily predictions for brighter satellites

Satellite Brightness Start Highest point End
(mag) Time Altitude Azimuth Time Altitude Azimuth Time Altitude Azimuth
CENTAUR R/B 4.3 03:24:35 25° N 03:24:35 25° N 03:28:12 10° NNE
CZ-4C R/B 3.7 03:25:40 46° NE 03:25:40 46° NE 03:32:44 10° ESE
Cosmos 1943 Rocket 4.2 03:29:28 23° ENE 03:29:28 23° ENE 03:32:11 10° NE
ADEOS II 4.2 03:30:06 10° NE 03:33:24 23° ENE 03:33:24 23° ENE
Cosmos 2369 Rocket 3.3 04:10:48 38° NNE 04:10:48 38° NNE 04:14:12 10° NNE
Cosmos 2184 Rocket 4.3 04:29:50 10° N 04:44:23 - S 04:34:29 51° NNW
USA 215 3.9 04:38:31 10° NE 04:44:30 39° NNW 04:45:29 37° NW
Cosmos 1953 Rocket 4.5 04:46:20 29° SSE 04:48:07 46° E 04:52:15 10° NNE
Cosmos 1825 Rocket 3.8 04:49:26 67° ENE 04:49:26 67° ENE 04:53:38 10° NNE
SJ 16-02 4.1 04:47:51 10° SE 04:50:50 18° E 04:53:50 10° NE
Cosmos 1656 Rocket 4.0 04:51:02 33° S 04:53:35 66° ESE 04:59:12 10° NNE
PSLV R/B 3.8 04:49:28 10° NNE 04:53:11 65° NE 04:53:11 65° NE
Lacrosse 5 3.2 05:01:40 26° NNW 05:01:43 26° NNW 05:05:58 10° NE
NOSS 3-1 (C) 4.1 04:57:55 19° S 05:01:49 50° ESE 05:07:58 10° NE
USA 229 DEB 3.6 05:00:36 43° SW 05:03:05 84° NW 05:10:05 10° NE
USA 229 3.6 05:00:40 43° SW 05:03:10 84° NW 05:10:10 10° NE
Tiangong 2 3.3 05:05:12 21° SE 05:05:12 21° SE 05:06:29 10° SE
CZ-3 R/B 4.4 05:00:06 29° WSW 05:10:42 37° SW 05:20:48 10° SSE
CZ-4B R/B 3.4 05:05:18 10° NNE 05:10:46 72° ESE 05:16:17 10° S
Cosmos 1943 Rocket 2.5 05:11:02 43° WNW 05:11:02 43° WNW 05:16:18 10° NNE
CZ-4C R/B 3.0 05:10:58 33° WNW 05:14:05 52° WSW 05:21:45 10° SSE
ADEOS II 2.3 05:09:13 10° N 05:14:15 47° WNW 05:14:20 47° WNW
Nadezhda 1 Rocket 4.0 05:12:06 31° SW 05:15:09 57° WNW 05:21:25 10° N
USA 267 3.9 05:11:09 10° S 05:16:51 32° SW 05:16:51 32° SW
Milstar 3 4.2 05:16:48 18° SSW 05:18:57 21° S 05:24:15 10° SE
Meteor PRIRODA 4.0 05:16:24 10° NNE 05:20:09 67° E 05:23:49 11° S
Okean O Rocket 1.5 05:16:11 10° N 05:20:35 73° WNW 05:22:26 34° SSW
Cosmos 2150 Rocket 4.3 05:27:10 39° WSW 05:28:25 47° WNW 05:33:34 10° N
Cosmos 1898 Rocket 4.3 05:30:29 30° WNW 05:30:29 30° WNW 05:34:57 10° N
CZ-2C R/B 3.8 05:25:40 10° SSE 05:30:26 84° ENE 05:35:11 10° NNW
Cosmos 1937 Rocket 4.0 05:31:04 36° W 05:32:00 39° WNW 05:36:59 10° N
IRS-1C Rocket 4.0 05:27:33 10° NNE 05:32:52 85° WNW 05:38:08 10° SSW
Okean-O 4.1 05:30:02 10° NNE 05:34:11 38° E 05:38:20 10° SSE
Cosmos-2242 2.8 05:30:03 10° N 05:34:21 80° W 05:38:39 10° S
Cosmos 1758 Rocket 3.7 05:32:45 29° SW 05:34:47 52° WNW 05:39:12 10° N
ERBS 2.6 05:38:40 31° NNW 05:40:06 65° NE 05:43:33 10° ESE
Cosmos 1125 Rocket 3.7 05:35:46 10° SSW 05:40:59 73° ESE 05:46:17 10° NNE
Cosmos 2366 rocket 4.3 05:38:05 10° N 05:44:14 69° E 05:50:21 10° SSE
Cosmos 2154 Rocket 4.3 05:39:34 10° NNW 05:45:26 41° W 05:51:15 10° SSW
Meteor 1-24 Rocket 4.1 05:41:36 10° S 05:47:35 73° E 05:53:31 10° NNE
Meteor 1-31 Rocket 2.7 05:47:06 10° N 05:50:52 59° WNW 05:54:37 10° SSW
COSMO-SKYMED 1 3.1 05:48:11 10° SSE 05:52:28 63° ENE 05:56:47 10° N
Cosmos 2227 Rocket 3.1 05:47:26 10° NNW 05:52:59 50° ENE 05:58:29 10° SE
MTI 3.6 05:49:52 10° S 05:53:07 78° WSW 05:56:23 10° NNW
Cosmos 1340 Rocket 4.2 05:53:57 21° NW 05:53:57 21° NW 05:56:30 10° NNW
Cosmos 2369 Rocket 3.8 05:52:37 16° NW 05:53:27 16° NW 05:56:56 10° N
SL-8 Rocket 4.0 05:51:40 10° NNW 05:57:58 72° W 06:04:15 10° S
CZ-4B R/B 4.5 05:57:30 10° NNW 05:58:45 15° NW 05:58:45 15° NW
Feng Yun 1-1 Rocket 4.5 05:54:25 10° NNE 06:00:02 77° ESE 06:05:46 10° S
Cosmos 1707 3.8 06:01:41 23° W 06:02:38 25° WNW 06:05:56 10° NNW
Cosmos 2221 4.0 06:02:04 10° N 06:06:15 41° ENE 06:10:24 10° SSE
Cosmos 1842 Rocket 3.5 06:01:54 10° N 06:06:18 89° WSW 06:10:38 10° S
Cosmos 1048 Rocket 4.0 06:04:24 10° NNW 06:09:29 57° WSW 06:14:36 10° S
Cosmos 1378 4.5 06:11:20 18° W 06:12:16 20° WNW 06:15:07 10° NNW
Cosmos 864 Rocket 4.4 06:08:21 10° N 06:14:34 75° W 06:20:41 10° S
Cosmos 2219 3.6 06:13:38 10° NW 06:18:54 40° WSW 06:24:07 10° S
Cosmos 1908 3.5 06:15:54 10° N 06:19:45 70° E 06:23:33 10° SSE
CZ-2C R/B 3.5 06:16:05 10° NNE 06:20:54 51° E 06:25:50 10° S
Cosmos 2218 Rocket 4.1 06:16:52 10° NNW 06:22:55 55° W 06:29:02 10° SSW
EO 1 Del DPAF 3.7 06:20:49 10° S 06:24:25 40° W 06:28:04 10° NNW
USA 215 4.5 06:21:02 10° ENE 06:26:28 29° N 06:31:55 10° WNW
Meteor 2-5 Rocket 4.3 06:21:24 10° SW 06:26:49 37° WNW 06:32:11 10° N
SJ 16-02 1.7 06:24:52 10° SW 06:29:04 44° WNW 06:33:18 10° N
Cosmos 2297 Rocket 2.4 06:25:17 10° NNW 06:30:58 81° ENE 06:36:37 10° SSE
GP-B 4.4 06:27:45 10° SSE 06:31:59 45° E 06:36:14 10° N
Meteor 2-8 Rocket 4.4 06:27:58 10° SSW 06:34:05 78° W 06:40:15 10° N
Meteor 2-1 Rocket 4.4 06:28:34 10° NNW 06:34:22 58° W 06:40:04 10° S
Cosmos 2082 3.8 06:32:16 10° NNW 06:37:59 88° ENE 06:43:37 10° SSE
Tiangong 2 3.5 06:38:33 10° SW 06:39:46 12° SSW 06:40:59 10° S
ATLAS CENTAUR R/B 3.8 06:38:00 10° N 06:40:12 15° NE 06:42:27 10° ENE
SKYMED 2 4.0 06:36:31 10° SSW 06:40:35 39° W 06:44:41 10° NNW
OE (NEXTSAT) 4.4 06:37:58 10° WNW 06:41:34 85° SSW 06:45:09 10° ESE
Cosmos 1656 4.3 06:36:27 10° S 06:42:04 63° ESE 06:47:42 10° NNE
In-Cosmos 22 4.5 06:38:14 10° SSW 06:43:37 47° WNW 06:49:10 10° N
Cosmos 1697 Rocket 4.1 06:38:34 10° S 06:43:53 44° ESE 06:49:15 10° NE
BREEZE-M DEB (TANK) 4.2 06:40:58 10° W 06:45:25 68° N 07:04:08 10° ENE
Lacrosse 5 3.7 06:42:31 10° NW 06:46:11 19° N 06:49:51 10° NE
Nadezhda 3 Rocket 4.1 06:40:15 10° S 06:46:36 89° E 06:52:55 10° N
ATLAS 2AS CENTAUR R/B 4.5 06:39:27 10° S 06:46:36 43° ESE 06:54:08 10° NE
